Simultaneous Nadir Overpasses (SNOs) Predictions

Prediction of SNOs between GOES-16 and METOP-C Satellite Orbit:

Table of predicted SNOs for the next 14.0 days since TLE Epoch: 5/22/2020
Index Date Time (GOES-16) GOES-16 Lat,Lon METOP-C Lat,Lon Distance(km) Time Diff (sec)
1 05/23/2020 02:30:38 -0.03, -75.19 0.14, -74.46 83.33 80
2 05/24/2020 14:46:49 0.02, -75.21 0.87, -79.02 434.24 80
3 05/25/2020 14:28:50 0.02, -75.21 -0.23, -74.02 134.76 80
4 05/27/2020 02:47:51 -0.01, -75.19 -0.79, -78.62 391.50 80
5 05/28/2020 02:24:32 -0.01, -75.19 0.32, -73.63 177.70 80
6 05/29/2020 14:43:23 0.01, -75.21 0.70, -78.18 339.25 80
7 05/30/2020 14:25:25 0.01, -75.22 -0.46, -73.20 230.41 80
8 06/01/2020 02:44:25 -0.00, -75.21 -0.61, -77.79 294.55 80
9 06/02/2020 02:21:06 -0.00, -75.22 0.56, -72.81 275.45 80
10 06/03/2020 14:39:58 -0.00, -75.25 0.47, -77.37 240.58 80
11 06/04/2020 14:21:58 -0.00, -75.26 -0.63, -72.37 329.62 80




NCC Satellite Simultaneous Nadir Overpasses (SNOs) Prediction Service
